Latest Weather Observations for Hogan Island

IDT60801

Issued at 6:02 pm EST Monday 25 September 2017 (issued every 30 minutes, with the page automatically refreshed every 10 minutes)

About weather observations | Map of weather stations | Latest weather observations for TAS | Other Formats
Station Details ID: 200838 Name: HOGAN ISLAND Lat: -39.22 Lon: 146.98 Height: 116.0 m
Data from the previous 72 hours. | See also: Recent months at Hogan Island
Date/Time
EST
Temp
°C
App
Temp
°C
Dew
Point
°C
Rel
Hum
%
Delta-T
°C
Wind Press
QNH
hPa
Press
MSL
hPa
Rain since
9am
mm
Dir  Spd
km/h
Gust
km/h
Spd
kts
Gust
kts
25/06:00pm 9.8 - - - - W 72 82 39 44 1008.0 1008.1 0.0
25/05:30pm 10.2 - - - - WSW 69 76 37 41 1007.7 - 0.0
25/05:00pm 10.9 - - - - W 70 80 38 43 1007.4 - 0.0
25/04:30pm 10.7 - - - - W 70 80 38 43 1006.8 - 0.0
25/04:00pm 10.8 - - - - W 69 78 37 42 1006.5 - 0.0
25/03:30pm 11.1 - - - - WSW 70 87 38 47 1006.3 - 0.0
25/03:00pm 11.6 - - - - W 65 74 35 40 1006.0 1006.1 0.0
25/02:30pm 11.6 - - - - WSW 61 70 33 38 1006.1 - 0.0
25/02:00pm 10.4 - - - - W 57 69 31 37 1006.1 - 0.0
25/01:56pm 10.2 - - - - W 65 83 35 45 1006.1 - 0.0
25/01:30pm 11.5 - - - - W 61 72 33 39 1005.6 - 0.0
25/01:00pm 11.5 - - - - WSW 61 70 33 38 1005.6 - 0.0
25/12:30pm 11.8 - - - - WSW 63 76 34 41 1005.4 - 0.0
25/12:00pm 12.2 - - - - W 61 70 33 38 1005.2 1005.3 0.0
25/11:30am 11.8 - - - - W 61 70 33 38 1004.9 - 0.0
25/11:00am 11.6 - - - - WSW 56 65 30 35 1004.8 - 0.0
25/10:30am 11.3 - - - - W 63 74 34 40 1004.5 - 0.0
25/10:15am 9.7 - - - - WSW 57 76 31 41 1004.3 - 0.0
25/10:00am 11.7 - - - - W 63 72 34 39 1004.1 - 0.0
25/09:30am 11.6 - - - - W 67 78 36 42 1003.8 - 0.0
25/09:00am 11.4 - - - - W 69 78 37 42 1003.2 1003.2 9.0
25/08:30am 10.7 - - - - WSW 61 72 33 39 1002.9 - 9.0
25/08:01am 10.6 - - - - W 69 87 37 47 1002.5 - 9.0
25/08:00am 10.6 - - - - W 70 87 38 47 1002.5 - 9.0
25/07:30am 10.5 - - - - W 67 80 36 43 1001.8 - 9.0
25/07:00am 10.1 - - - - W 61 74 33 40 1002.2 - 9.0
25/06:30am 10.1 - - - - WSW 61 72 33 39 1001.5 - 9.0
25/06:00am 9.9 - - - - W 69 82 37 44 1000.7 1000.8 9.0
25/05:30am 10.1 - - - - WSW 65 74 35 40 1000.2 - 9.0
25/05:00am 10.4 - - - - W 69 80 37 43 999.9 - 9.0
25/04:30am 10.5 - - - - W 61 72 33 39 999.7 - 9.0
25/04:00am 10.4 - - - - W 57 72 31 39 999.4 - 9.0
25/03:30am 10.7 - - - - W 56 65 30 35 999.0 - 9.0
25/03:00am 10.9 - - - - W 59 70 32 38 998.5 998.6 9.0
25/02:33am 10.4 - - - - W 70 89 38 48 997.9 - 9.0
25/02:30am 10.4 - - - - W 72 89 39 48 997.8 - 8.8
25/02:00am 11.3 - - - - W 72 83 39 45 997.4 - 8.4
25/01:30am 11.0 - - - - W 78 89 42 48 997.2 - 8.4
25/01:00am 11.5 - - - - W 76 95 41 51 996.8 - 7.4
25/12:31am 11.7 - - - - W 89 107 48 58 996.1 - 7.4
25/12:30am 11.7 - - - - W 91 107 49 58 996.1 - 7.4
25/12:20am 11.5 - - - - WNW 83 104 45 56 995.7 - 7.4
25/12:00am 11.2 - - - - W 82 95 44 51 996.1 996.2 7.2
 
Date/Time
EST
Temp
°C
App
Temp
°C
Dew
Point
°C
Rel
Hum
%
Delta-T
°C
Wind Press
QNH
hPa
Press
MSL
hPa
Rain since
9am
mm
Dir  Spd
km/h
Gust
km/h
Spd
kts
Gust
kts
24/11:30pm 12.4 - - - - WNW 83 104 45 56 995.2 - 6.2
24/11:05pm 12.8 - - - - WNW 87 109 47 59 994.6 - 6.2
24/11:00pm 12.6 - - - - WNW 87 102 47 55 994.9 - 6.2
24/10:30pm 12.8 - - - - WNW 91 106 49 57 994.7 - 6.2
24/10:10pm 13.0 - - - - WNW 87 107 47 58 994.2 - 6.2
24/10:00pm 12.9 - - - - WNW 89 102 48 55 994.6 - 6.2
24/09:54pm 12.9 - - - - WNW 91 109 49 59 994.7 - 6.2
24/09:30pm 13.0 - - - - WNW 85 100 46 54 994.6 - 6.2
24/09:00pm 12.6 - - - - WNW 78 93 42 50 995.1 995.1 6.2
24/08:54pm 12.7 - - - - WNW 72 85 39 46 995.3 - 6.2
24/08:30pm 12.0 - - - - WNW 56 65 30 35 995.5 - 6.2
24/08:00pm 11.7 - - - - WNW 61 74 33 40 995.6 - 6.2
24/07:49pm 11.4 - - - - WNW 50 72 27 39 996.0 - 6.0
24/07:30pm 11.5 - - - - WNW 56 65 30 35 995.8 - 6.0
24/07:00pm 10.8 - - - - WNW 69 80 37 43 996.0 - 5.6
24/06:58pm 10.6 - - - - WNW 70 80 38 43 995.8 - 5.4
24/06:50pm 11.2 - - - - WNW 46 65 25 35 996.3 - 4.6
24/06:30pm 11.1 - - - - WNW 43 52 23 28 995.8 - 3.8
24/06:00pm 11.3 - - - - W 43 46 23 25 995.8 995.8 3.4
24/05:30pm 11.3 - - - - W 54 63 29 34 995.3 - 3.4
24/05:01pm 13.5 - - - - WNW 56 80 30 43 994.9 - 3.4
24/05:00pm 13.5 - - - - WNW 54 67 29 36 994.9 - 3.4
24/04:30pm 13.6 - - - - WNW 56 69 30 37 994.5 - 3.4
24/04:10pm 14.0 - - - - WNW 56 82 30 44 994.3 - 3.4
24/04:00pm 13.9 - - - - WNW 52 57 28 31 994.4 - 3.4
24/03:30pm 14.7 - - - - WNW 46 50 25 27 994.5 - 3.4
24/03:00pm 14.8 - - - - WNW 43 50 23 27 994.8 994.8 3.4
24/02:48pm 14.8 - - - - WNW 52 70 28 38 995.0 - 3.4
24/02:30pm 15.0 - - - - WNW 56 65 30 35 994.7 - 3.4
24/02:00pm 15.0 - - - - WNW 61 70 33 38 994.7 - 3.4
24/01:30pm 14.6 - - - - WNW 56 69 30 37 995.2 - 3.4
24/01:00pm 14.1 - - - - WNW 59 74 32 40 995.6 - 3.4
24/12:30pm 13.3 - - - - WNW 57 76 31 41 995.6 - 3.4
24/12:00pm 13.3 - - - - WNW 54 61 29 33 996.0 996.0 3.4
24/11:30am 12.3 - - - - WNW 54 65 29 35 996.0 - 3.4
24/11:00am 11.6 - - - - WNW 56 67 30 36 995.9 - 3.4
24/10:30am 10.2 - - - - W 56 69 30 37 996.1 - 3.4
24/10:00am 9.6 - - - - W 65 74 35 40 995.8 - 3.4
24/09:36am 8.8 - - - - WNW 74 93 40 50 995.4 - 3.0
24/09:34am 8.9 - - - - WNW 83 93 45 50 994.9 - 2.6
24/09:32am 10.2 - - - - WNW 56 82 30 44 995.5 - 2.0
24/09:30am 10.6 - - - - WNW 54 61 29 33 995.6 - 2.0
24/09:00am 10.9 - - - - WNW 41 48 22 26 995.5 995.5 0.6
24/08:30am 12.4 - - - - NW 33 43 18 23 995.5 - 0.0
24/08:00am 12.6 - - - - WNW 43 52 23 28 995.4 - 0.0
24/07:30am 12.3 - - - - WNW 52 59 28 32 995.1 - 0.0
24/07:00am 12.0 - - - - WNW 54 63 29 34 995.1 - 0.0
24/06:30am 12.0 - - - - WNW 50 57 27 31 995.5 - 0.0
24/06:00am 12.1 - - - - WNW 59 67 32 36 995.4 995.4 0.0
24/05:30am 12.2 - - - - WNW 57 65 31 35 995.5 - 0.0
24/05:00am 12.2 - - - - WNW 54 61 29 33 995.4 - 0.0
24/04:30am 12.7 - - - - WNW 61 74 33 40 995.1 - 0.0
24/04:00am 12.7 - - - - WNW 61 76 33 41 994.9 - 0.0
24/03:30am 12.9 - - - - WNW 65 82 35 44 994.5 - 0.0
24/03:28am 13.0 - - - - WNW 63 82 34 44 994.4 - 0.0
24/03:00am 12.9 - - - - WNW 63 72 34 39 994.5 994.5 0.0
24/02:30am 12.7 - - - - WNW 56 67 30 36 994.6 - 0.0
24/02:23am 12.8 - - - - WNW 63 82 34 44 994.7 - 0.0
24/02:00am 13.0 - - - - WNW 63 74 34 40 994.5 - 0.0
24/01:30am 13.0 - - - - WNW 54 63 29 34 995.2 - 0.0
24/01:18am 13.0 - - - - WNW 50 67 27 36 995.3 - 0.0
24/01:00am 12.7 - - - - WNW 41 46 22 25 995.8 - 0.0
24/12:30am 12.9 - - - - WNW 54 63 29 34 995.4 - 0.0
24/12:00am 13.1 - - - - WNW 61 69 33 37 995.1 995.1 0.0
 
Date/Time
EST
Temp
°C
App
Temp
°C
Dew
Point
°C
Rel
Hum
%
Delta-T
°C
Wind Press
QNH
hPa
Press
MSL
hPa
Rain since
9am
mm
Dir  Spd
km/h
Gust
km/h
Spd
kts
Gust
kts
23/11:30pm 13.2 - - - - WNW 54 67 29 36 995.4 - 0.0
23/11:00pm 13.1 - - - - W 63 72 34 39 995.3 - 0.0
23/10:30pm 13.0 - - - - W 61 76 33 41 995.3 - 0.0
23/10:00pm 12.7 - - - - W 57 67 31 36 995.3 - 0.0
23/09:30pm 12.7 - - - - W 61 70 33 38 995.2 - 0.0
23/09:00pm 12.7 - - - - W 56 65 30 35 995.0 995.0 0.0
23/08:30pm 12.9 - - - - W 63 74 34 40 994.5 - 0.0
23/08:00pm 13.2 - - - - WSW 69 80 37 43 993.9 - 0.0
23/07:59pm 13.2 - - - - WSW 67 80 36 43 993.9 - 0.0
23/07:30pm 13.5 - - - - WSW 85 106 46 57 992.6 - 0.0
23/07:24pm 13.6 - - - - WSW 87 106 47 57 992.5 - 0.0
23/07:00pm 13.5 - - - - WSW 87 100 47 54 991.9 - 0.0
23/06:43pm 13.7 - - - - WSW 96 115 52 62 991.0 - 0.0
23/06:36pm 14.2 - - - - WSW 104 115 56 62 990.3 - 0.0
23/06:33pm 14.2 - - - - W 83 104 45 56 990.7 - 0.0
23/06:30pm 14.3 - - - - W 83 100 45 54 990.6 - 0.0
23/06:27pm 14.5 - - - - W 82 100 44 54 990.4 - 0.0
23/06:25pm 14.4 - - - - W 76 89 41 48 990.4 - 0.0
23/06:08pm 16.3 - - - - W 50 69 27 37 989.4 - 0.0
23/06:00pm 17.2 - - - - WNW 43 54 23 29 989.2 989.3 0.0
23/05:48pm 18.4 - - - - WNW 33 39 18 21 988.9 - 0.0
23/05:30pm 14.9 - - - - WNW 15 19 8 10 988.9 - 0.0
23/05:00pm 15.9 - - - - NNW 11 15 6 8 988.6 - 0.0
23/04:30pm 17.4 - - - - NE 11 15 6 8 988.0 - 0.0
23/04:00pm 15.8 - - - - ENE 15 20 8 11 988.8 - 0.0
23/03:30pm 16.4 - - - - ESE 17 20 9 11 988.8 - 0.0
23/03:00pm 17.6 - - - - ESE 26 32 14 17 988.7 988.7 0.0
23/02:30pm 17.8 - - - - ESE 32 35 17 19 989.4 - 0.0
23/02:00pm 18.0 - - - - SSE 28 32 15 17 990.4 - 0.0
23/01:30pm 18.4 - - - - SSE 24 30 13 16 991.2 - 0.0
23/01:00pm 19.1 - - - - SSE 13 17 7 9 992.5 - 0.0
23/12:30pm 22.3 - - - - S 11 17 6 9 993.5 - 0.0
23/12:00pm 22.2 - - - - ESE 6 11 3 6 993.9 993.9 0.0
23/11:30am 21.7 - - - - NW 6 11 3 6 994.6 - 0.0
23/11:00am 19.7 - - - - NNW 15 20 8 11 995.4 - 0.0
23/10:30am 17.7 - - - - NNW 20 28 11 15 996.5 - 0.0
23/10:00am 17.9 - - - - N 30 35 16 19 996.8 - 0.0
23/09:33am 16.2 - - - - N 35 54 19 29 997.3 - 0.0
23/09:30am 18.3 - - - - N 39 54 21 29 997.5 - 0.0
23/09:16am 15.0 - - - - NNE 28 46 15 25 997.8 - 0.0
23/09:00am 15.3 - - - - NNE 26 35 14 19 997.5 997.6 0.0
23/08:46am 15.8 - - - - NNE 28 50 15 27 998.1 - 0.0
23/08:30am 16.2 - - - - NNE 22 30 12 16 998.3 - 0.0
23/08:07am 18.2 - - - - N 33 56 18 30 998.9 - 0.0
23/08:00am 16.6 - - - - N 33 44 18 24 998.6 - 0.0
23/07:30am 15.1 - - - - N 32 41 17 22 999.1 - 0.0
23/07:00am 14.6 - - - - NNE 33 37 18 20 998.3 - 0.0
23/06:30am 14.5 - - - - NNE 32 39 17 21 998.6 - 0.0
23/06:00am 14.8 - - - - N 39 44 21 24 998.9 999.0 0.0
23/05:30am 14.9 - - - - N 35 43 19 23 999.5 - 0.0
23/05:00am 14.7 - - - - N 32 39 17 21 999.8 - 0.0
23/04:30am 12.6 - - - - NNE 28 35 15 19 1000.1 - 0.0
23/04:00am 12.7 - - - - NNE 28 39 15 21 1000.5 - 0.0
23/03:30am 12.5 - - - - NNE 28 35 15 19 1000.6 - 0.0
23/03:00am 12.6 - - - - NE 24 30 13 16 1001.6 1001.7 0.0
23/02:30am 12.8 - - - - NE 24 30 13 16 1002.2 - 0.0
23/02:00am 12.9 - - - - NE 30 35 16 19 1002.8 - 0.0
23/01:30am 12.8 - - - - NE 28 33 15 18 1003.5 - 0.0
23/01:00am 12.9 - - - - NE 30 35 16 19 1003.8 - 0.0
23/12:30am 12.8 - - - - NE 33 39 18 21 1004.2 - 0.0
23/12:00am 12.6 - - - - NE 32 39 17 21 1004.4 1004.5 0.0
 
Date/Time
EST
Temp
°C
App
Temp
°C
Dew
Point
°C
Rel
Hum
%
Delta-T
°C
Wind Press
QNH
hPa
Press
MSL
hPa
Rain since
9am
mm
Dir  Spd
km/h
Gust
km/h
Spd
kts
Gust
kts
22/11:30pm 12.4 - - - - NE 33 39 18 21 1004.7 - 0.0
22/11:00pm 12.2 - - - - NE 33 37 18 20 1005.3 - 0.0
22/10:30pm 12.1 - - - - NE 32 35 17 19 1005.9 - 0.0
22/10:00pm 12.0 - - - - NE 32 37 17 20 1006.2 - 0.0
22/09:30pm 11.8 - - - - NE 35 39 19 21 1006.5 - 0.0
22/09:00pm 11.8 - - - - NE 33 39 18 21 1006.8 1006.9 0.0
22/08:30pm 11.6 - - - - NE 33 37 18 20 1006.9 - 0.0
22/08:00pm 11.4 - - - - NE 30 32 16 17 1007.1 - 0.0
22/07:30pm 11.2 - - - - ENE 24 26 13 14 1007.5 - 0.0
22/07:00pm 11.3 - - - - ENE 26 32 14 17 1007.3 - 0.0
22/06:30pm 11.3 - - - - ENE 33 39 18 21 1006.9 - 0.0

Other Formats:

Comma delimited format used in spreadsheet applications
http://www.bom.gov.au/fwo/IDT60801/IDT60801.94949.axf

JavaScript Object Notation format (JSON) in row-major order
http://www.bom.gov.au/fwo/IDT60801/IDT60801.94949.json